sat.trackr.live / text

‹ back to catalog

STARLINK-31479

NORAD 59316 · 2024-056W

PAYLOAD ACTIVE UNKNOWN

§ Identity

Operator
Country
US
Launch date
2024-03-24
Launch site
AFETR
Launch vehicle
Mass (kg)
RCS (m²)

Purposes: comms

External: N2YO · Heavens-Above · Gunter

§ Orbital elements

Epoch: 2026-09-20T21:50:47.224320Z

Period
94.27 min
Inclination
43.0032°
Eccentricity
0.0000891
Mean motion
15.27575578 rev/d
Perigee alt
482.5 km
Apogee alt
483.7 km
Semi-major
6,861.2 km
B*
2.4647e-5
RAAN
212.2788°
Arg perigee
282.7032°
Mean anomaly
77.3720°
Rev number
14,096

§ Raw data

STARLINK-314791 59316U 24056W   26263.91026880  .00000416  00000+0  24647-4 0  99912 59316  43.0032 212.2788 0000891 282.7032  77.3720 15.27575578140968

JSON: /api/v1/satellites/59316 · /tle

For live sub-satellite position, see the globe view (requires WebGL).

§ Visibility from observer

Set your observer location to see the next 7 days of passes ≥ 10°. The values pass through the URL so the page stays shareable.

No JS? Fill the form by hand. The geolocation button needs JavaScript.